Location: Callanans Corners
(42.5326°N, 73.8846°W)
Time: 15:23:00
(UTC+00:00)

CZ-4B R/B - Pass Details

Date: 06 October 2022
Orbit: 808 x 881 km, 99.0° (Epoch: 28 November)

Event Time Altitude Azimuth Distance (km) Brightness Sun altitude
Rises 22:58:59 0° 143° (SE) 3,351 6.0 -6.5°
Reaches altitude 10° 23:01:25 10° 137° (SE) 2,432 5.2 -6.9°
Maximum altitude 23:06:26 42° 68° (ENE) 1,194 3.6 -7.9°
Drops below altitude 10° 23:11:35 10° 359° (N) 2,492 5.7 -8.8°
Sets 23:14:06 0° 353° (N) 3,444 6.5 -9.3°
